This is the latest recevied weather packets stored in our database for station/object DL6DJ-15. If no packets are shown the sender has not sent any weather packets the latest 10 day(s).
| Time | Temp. | Humidity | Pressure | Rain* | Wind** | Luminosity | Snow |
|---|---|---|---|---|---|---|---|
| 1777585938 | 4.44° C | 48% | 1029.1 hPa | - | - | - | - |
| 1777585637 | 5° C | 47% | 1029.2 hPa | - | - | - | - |
| 1777585337 | 5° C | 47% | 1029.2 hPa | - | - | - | - |
| 1777585037 | 5.56° C | 45% | 1029.1 hPa | - | - | - | - |
| 1777584736 | 6.11° C | 44% | 1029.1 hPa | - | - | - | - |
| 1777584436 | 6.67° C | 40% | 1029.3 hPa | - | - | - | - |
| 1777584135 | 6.67° C | 40% | 1029.2 hPa | - | - | - | - |
| 1777583835 | 7.22° C | 38% | 1029.1 hPa | - | - | - | - |
| 1777583534 | 7.78° C | 37% | 1028.9 hPa | - | - | - | - |
| 1777583234 | 7.78° C | 34% | 1029 hPa | - | - | - | - |
| 1777582934 | 7.78° C | 36% | 1029 hPa | - | - | - | - |
| 1777582633 | 7.78° C | 36% | 1029 hPa | - | - | - | - |
| 1777582333 | 7.78° C | 33% | 1028.9 hPa | - | - | - | - |
| 1777582032 | 7.78° C | 35% | 1029 hPa | - | - | - | - |
| 1777581732 | 7.78° C | 34% | 1029.1 hPa | - | - | - | - |
| 1777581432 | 8.33° C | 34% | 1029.1 hPa | - | - | - | - |
| 1777581131 | 8.89° C | 32% | 1029 hPa | - | - | - | - |
| 1777580831 | 8.89° C | 30% | 1029 hPa | - | - | - | - |
| 1777580530 | 9.44° C | 31% | 1028.9 hPa | - | - | - | - |
| 1777580230 | 9.44° C | 28% | 1028.9 hPa | - | - | - | - |
| 1777579929 | 9.44° C | 29% | 1029 hPa | - | - | - | - |
| 1777579629 | 10° C | 28% | 1029 hPa | - | - | - | - |
| 1777579329 | 10° C | 29% | 1028.8 hPa | - | - | - | - |
| 1777579028 | 10° C | 26% | 1028.9 hPa | - | - | - | - |
| 1777578728 | 10° C | 26% | 1028.8 hPa | - | - | - | - |
* Rain since midnight (hover to see other rain measurements)
** Current wind speed in m/s (hover to see current wind gust speed)